Startseite
Über Mich
AHP4
Galerie
Sehschlangen
Tourenbuch
Bookmarks
Elektronik
Bewertung
Geschichten
[Tagesmessung] [Jahreswerte] [Information]

Messwerte vom 24.03.2022

Die letzten Messwerte von 23:58:46 Uhr:
KategorieMesswert
Temperatur [°C]1
Luftdruck [mBar]1013
Sonneneinstrahlung0
Wind [km/h]0 aus Ost
Niederschlag [l/m²]0
rel.Luftfeucht.74.8%
CO2 [ppm]732

Diagramme
Messwerte vom 24.03.2022
Tagesaggregation
KategorieMinimumMaximumSchnittSumme
Temperatur [°C]-2216.8479
Luftdruck [mBar]101210141013.0583
Sonneneinstrahlung247109.2208
Wind [km/h]10
rF [%]21.286.956.36
Niederschlag [l/m²]0
CO2 [ppm]401739589.9
Einordnung alsFrosttag
Vegetationstag

Messungen an benachbarten Tagen: Zur Jahresaggregation 2022
Tabelle aller Messwerte
UhrzeitTemperatur [°C]Luftdruck [mBar]SonneWind [km/h]RichtungRegen [l/m²]rF [%]CO2 [ppm]
00:01:47 3 1014 0 0 SO 0 63.2 657
00:04:47 3 1014 0 0 SO 0 63.6 650
00:07:48 2 1014 0 0 SO 0 64.1 639
00:10:48 2 1014 0 0 SO 0 64.7 638
00:13:49 2 1014 0 0 SO 0 65.5 636
00:16:47 2 1014 0 0 SO 0 66 644
00:19:48 2 1014 0 0 SO 0 66.5 648
00:22:49 2 1014 0 0 SO 0 66 659
00:25:46 2 1014 0 0 SO 0 65.7 655
00:28:47 2 1014 0 0 SO 0 65.7 654
00:31:49 2 1014 0 0 SO 0 65.7 653
00:34:46 2 1014 0 0 SO 0 66.1 651
00:37:48 2 1013 0 0 SO 0 66.6 650
00:40:46 1 1014 0 0 SO 0 66.7 647
00:43:46 1 1014 0 0 SO 0 67.2 653
00:46:48 1 1014 0 0 SO 0 67.8 647
00:49:47 2 1013 0 0 SO 0 68 653
00:52:48 2 1014 0 0 SO 0 68.5 650
00:55:48 1 1014 0 0 SO 0 68.3 647
00:58:47 1 1014 0 0 N 0 69.3 636
01:01:46 2 1014 0 0 N 0 70 642
01:04:49 2 1013 0 0 N 0 70.3 643
01:07:46 2 1013 0 0 NO 0 70.3 642
01:10:48 2 1014 0 0 NW 0 71.7 635
01:13:48 2 1013 0 0 NW 0 71.2 638
01:16:46 2 1013 0 0 NW 0 71.3 639
01:19:48 1 1014 0 0 NW 0 70.8 648
01:22:48 1 1014 0 0 NW 0 70.4 648
01:25:46 1 1013 0 0 NW 0 71.3 647
01:28:46 1 1013 0 0 NW 0 71.3 639
01:31:46 1 1013 0 0 NW 0 71.4 629
01:34:47 0 1013 0 0 NW 0 71.9 644
01:37:47 0 1013 0 0 NW 0 72.1 641
01:40:47 0 1014 0 0 NW 0 72.8 651
01:43:49 0 1013 0 0 NW 0 72.9 651
01:46:46 0 1013 0 0 NW 0 73.4 654
01:49:45 0 1014 0 0 O 0 73.8 653
01:52:45 0 1013 0 0 O 0 73.6 645
01:55:47 0 1014 0 0 O 0 73.6 649
01:58:49 0 1013 0 0 O 0 74.1 653
02:01:47 0 1014 0 0 O 0 74.2 659
02:04:45 0 1013 0 0 O 0 74.3 653
02:07:45 0 1013 0 0 O 0 74.9 653
02:10:45 0 1014 0 0 O 0 75.6 645
02:13:47 0 1013 0 0 O 0 75.3 656
02:16:46 0 1013 0 0 O 0 75.2 651
02:19:47 0 1013 0 0 O 0 75.2 649
02:22:45 0 1013 0 0 O 0 75.5 641
02:25:46 0 1013 0 0 O 0 75.8 642
02:28:46 0 1013 0 0 O 0 75.9 640
02:31:47 0 1013 0 0 O 0 76.1 645
02:34:47 0 1013 0 0 O 0 76.2 648
02:37:45 0 1014 0 0 O 0 76 651
02:40:45 0 1013 0 0 O 0 76.2 653
02:43:46 0 1013 0 0 O 0 76.5 662
02:46:47 0 1013 0 0 N 0 77.6 662
02:49:49 0 1013 0 0 N 0 78.2 656
02:52:44 0 1013 0 0 N 0 77.5 653
02:55:48 0 1013 0 0 N 0 77.4 645
02:58:45 0 1013 0 0 N 0 77.2 644
03:01:46 0 1013 0 0 NO 0 77.8 647
03:04:46 0 1013 0 0 O 0 79.6 649
03:07:45 0 1013 0 0 N 0 78.6 650
03:10:47 0 1013 0 0 N 0 78.5 652
03:13:45 0 1013 0 0 N 0 78.3 650
03:16:46 -1 1013 0 0 N 0 79.4 653
03:19:47 -1 1013 0 0 N 0 79.1 656
03:22:47 -1 1013 0 0 N 0 79 658
03:25:48 -1 1013 0 0 N 0 79 665
03:28:46 -1 1013 0 0 N 0 79.1 659
03:31:49 -1 1013 0 0 NO 0 81.9 662
03:34:47 -1 1013 0 0 NO 0 82.1 659
03:37:47 -1 1013 0 0 NO 0 82.4 660
03:40:48 -1 1013 0 0 NO 0 81.6 662
03:43:47 -1 1013 0 0 NO 0 81.7 653
03:46:47 -1 1013 0 0 NO 0 82.6 650
03:49:48 -1 1013 0 0 NO 0 81.7 648
03:52:46 -1 1013 0 0 NO 0 80.9 644
03:55:47 -1 1013 0 0 NO 0 80.9 645
03:58:46 -1 1013 0 0 NO 0 81 645
04:01:47 -1 1013 0 0 NO 0 81.7 642
04:04:47 -1 1013 0 0 NO 0 82.2 645
04:07:46 -1 1013 0 0 NO 0 82.1 645
04:10:47 -1 1013 0 0 NO 0 81.8 652
04:13:47 -1 1013 0 0 NO 0 81.6 652
04:16:47 -1 1013 0 0 NO 0 81.9 654
04:19:47 -1 1013 0 0 NO 0 83.1 651
04:22:50 -1 1013 0 0 NO 0 82.6 647
04:25:48 -1 1014 0 0 NO 0 82 650
04:28:46 -1 1013 0 0 SO 0 81.5 648
04:31:47 -1 1013 0 0 SO 0 81.4 648
04:34:47 -1 1013 0 0 SO 0 81.5 651
04:37:47 -1 1013 0 0 SO 0 81.6 657
04:40:47 -2 1013 0 0 SO 0 81.6 657
04:43:48 -2 1013 0 0 SO 0 81.5 650
04:46:45 -2 1013 0 0 SO 0 81.7 653
04:49:49 -2 1013 0 0 SO 0 81.7 653
04:52:47 -2 1013 0 0 SO 0 81.9 659
04:55:46 -2 1014 0 0 SO 0 82.3 653
04:58:47 -2 1013 0 0 SO 0 82.3 651
05:01:47 -2 1013 0 0 SO 0 82.2 644
05:04:44 -2 1013 0 0 N 0 82.4 644
05:07:45 -1 1014 0 0 N 0 84 647
05:10:47 -1 1013 0 0 N 0 84.2 645
05:13:46 -1 1013 0 0 N 0 83.6 647
05:16:46 -1 1013 0 0 N 0 83.3 650
05:19:48 -1 1013 0 0 S 0 83.9 651
05:22:47 -1 1013 0 0 S 0 83.8 650
05:25:47 -1 1013 0 0 S 0 83.4 653
05:28:47 -1 1013 0 0 S 0 83.1 650
05:31:45 -1 1013 0 0 O 0 83.3 653
05:34:46 -2 1013 0 0 O 0 83.6 652
05:37:49 -2 1013 0 0 O 0 83.7 658
05:40:46 -2 1013 0 0 O 0 84.1 656
05:43:46 -1 1013 0 0 O 0 84.5 650
05:46:46 -1 1013 3 0 N 0 84.9 642
05:49:48 -1 1013 5 0 NW 0 85.3 635
05:52:47 -1 1013 9 0 O 0 85.4 647
05:55:46 -1 1013 15 0 O 0 85.5 655
05:58:48 -1 1013 23 0 O 0 85.9 648
06:01:46 -2 1013 33 0 O 0 85.5 644
06:04:46 -2 1013 45 0 O 0 84.9 645
06:07:49 -2 1013 58 0 O 0 85.3 645
06:10:48 -2 1013 71 0 O 0 85.9 643
06:13:45 -2 1013 84 0 O 0 85.8 647
06:16:49 -2 1013 96 0 O 0 85.3 648
06:19:50 -2 1013 108 0 O 0 85.5 641
06:22:49 -2 1013 118 0 O 0 85.8 644
06:25:47 -2 1013 127 0 O 0 86.5 643
06:28:48 -2 1013 135 0 O 0 86.9 645
06:31:49 -2 1013 141 0 O 0 86.3 644
06:34:46 -2 1013 147 0 O 0 86.2 648
06:37:48 -2 1013 152 0 O 0 86.1 644
06:40:45 -2 1013 157 0 O 0 86.1 645
06:43:48 -2 1013 161 0 O 0 86 644
06:46:47 -2 1013 164 0 O 0 85.9 641
06:49:48 -2 1013 167 0 O 0 85.9 638
06:52:45 -2 1013 170 0 O 0 85.9 635
06:55:47 -2 1013 172 0 O 0 86 641
06:58:47 -1 1013 174 0 O 0 86.3 641
07:01:47 -1 1013 176 0 O 0 86.2 650
07:04:47 -1 1013 178 0 O 0 85.9 641
07:07:46 -1 1013 179 0 O 0 86.1 633
07:11:08 -1 1013 181 0 O 0 85.6 624
07:13:49 -1 1013 181 0 O 0 85.6 642
07:16:48 -1 1013 182 0 O 0 85.6 644
07:19:48 -1 1013 183 0 O 0 85.6 648
07:22:47 -1 1013 184 0 O 0 85.6 656
07:25:47 -1 1013 185 0 O 0 85.6 663
07:28:47 0 1013 185 0 O 0 85.3 668
07:31:48 0 1013 186 0 O 0 85.3 672
07:34:47 1 1013 187 0 O 0 84.9 668
07:37:48 1 1013 187 0 O 0 84.5 668
07:40:48 1 1013 188 0 O 0 83.3 667
07:43:48 2 1013 188 0 O 0 82.9 669
07:46:44 2 1013 189 0 O 0 82.4 677
07:49:48 2 1013 189 0 O 0 81.5 677
07:52:47 2 1013 190 0 O 0 80.7 679
07:55:46 2 1013 190 0 O 0 80.5 671
07:58:49 2 1013 191 0 O 0 80.4 663
08:01:48 3 1013 191 0 O 0 80 661
08:04:47 3 1013 191 0 NO 0 79.7 676
08:07:47 3 1013 192 0 O 0 78.6 682
08:10:47 4 1013 192 0 O 0 77.7 684
08:13:47 4 1014 192 0 NO 0 77.2 674
08:16:48 4 1014 193 1 N 0 76.8 672
08:19:49 4 1014 193 0 NO 0 75.9 670
08:22:46 4 1013 193 1 N 0 75 667
08:25:49 5 1013 193 1 NO 0 73.9 668
08:28:49 5 1013 193 0 S 0 72.8 671
08:31:48 5 1013 194 0 O 0 72.2 683
08:34:48 5 1013 194 0 O 0 71.6 685
08:37:46 5 1013 194 2 O 0 71 679
08:40:49 6 1014 195 1 N 0 69.8 663
08:43:49 6 1013 195 1 N 0 68.2 659
08:46:48 6 1013 195 1 0 67.7 657
08:49:49 6 1013 195 0 SO 0 66.3 662
08:52:47 6 1013 195 0 NO 0 65.3 661
08:55:48 6 1014 195 0 S 0 64 664
08:58:47 6 1013 196 1 N 0 63.7 670
09:01:48 7 1013 196 0 O 0 63 676
09:04:49 7 1013 196 3 SO 0 62 679
09:07:46 7 1013 196 1 N 0 61.1 671
09:10:49 7 1013 197 2 N 0 61.4 670
09:13:46 7 1014 197 1 0 62.4 665
09:16:47 7 1014 197 2 N 0 62.4 658
09:19:47 7 1014 198 0 SW 0 61.8 664
09:22:46 7 1013 198 0 O 0 61.2 665
09:25:48 7 1013 199 4 NO 0 58.8 674
09:28:50 7 1013 199 1 SO 0 58.4 680
09:31:48 8 1013 200 5 NO 0 58.6 671
09:34:47 8 1014 201 5 N 0 57.6 668
09:37:48 8 1014 202 1 SO 0 57.4 662
09:40:48 8 1014 203 0 NO 0 56.4 661
09:43:47 8 1014 203 1 N 0 56.8 653
09:46:49 8 1014 204 3 NO 0 55.9 653
09:49:47 8 1014 205 2 N 0 55 656
09:52:48 9 1014 205 4 W 0 55.7 662
09:55:50 9 1014 205 4 NW 0 54.3 663
09:58:49 9 1014 205 1 NO 0 54.1 667
10:01:49 9 1014 205 0 NW 0 53.4 671
10:04:47 9 1014 206 3 NO 0 53 670
10:07:48 9 1014 206 2 0 52.4 667
10:10:48 9 1014 206 0 NW 0 52.1 665
10:13:46 9 1014 206 5 NW 0 51.4 667
10:16:46 10 1014 206 2 NO 0 51.4 664
10:19:48 10 1014 77 9 NW 0 51.1 590
10:22:47 10 1014 152 2 NO 0 50.2 407
10:25:49 10 1014 207 3 NO 0 49 404
10:28:45 10 1014 207 4 O 0 48.9 407
10:31:49 10 1013 207 4 N 0 47.5 407
10:34:47 10 1014 207 5 N 0 47.6 407
10:37:48 10 1013 207 2 NW 0 48 407
10:40:48 10 1014 207 4 NO 0 47.2 404
10:43:47 10 1014 208 5 S 0 46.7 407
10:46:46 10 1014 208 2 O 0 47.1 406
10:49:47 11 1014 208 2 0 46.6 404
10:52:48 11 1014 208 2 S 0 45.8 403
10:55:46 11 1014 208 3 0 45.1 407
10:58:46 11 1013 208 1 O 0 44.9 406
11:01:47 11 1014 209 5 NW 0 42.9 407
11:04:49 11 1014 209 4 NW 0 42.1 404
11:07:46 11 1013 209 7 N 0 41.1 407
11:10:49 11 1014 209 5 NW 0 40.1 407
11:13:47 11 1013 209 1 NO 0 40.3 401
11:16:49 11 1013 210 4 SW 0 39.2 409
11:19:46 12 1013 210 2 N 0 38.8 413
11:22:50 12 1014 210 2 NO 0 38.8 416
11:25:48 12 1013 210 7 NO 0 39.3 424
11:28:48 12 1014 210 10 N 0 39.3 427
11:31:47 13 1014 211 1 SO 0 37.3 433
11:34:48 13 1014 211 10 S 0 35.2 433
11:37:46 13 1014 212 5 N 0 34.4 442
11:40:49 13 1014 212 4 NO 0 34.1 446
11:43:47 14 1014 212 5 NW 0 34.3 448
11:46:46 14 1014 212 6 NW 0 33.1 451
11:49:48 14 1014 213 2 NO 0 33.2 451
11:52:46 14 1014 213 2 0 33.5 456
11:55:48 14 1014 214 7 W 0 33.4 460
11:58:46 15 1013 214 2 N 0 32.9 468
12:01:48 15 1014 214 3 N 0 32 469
12:04:46 15 1013 215 2 NO 0 31.3 536
12:07:49 15 1013 215 2 NO 0 31.6 536
12:10:47 15 1013 215 9 NW 0 31.3 550
12:13:49 15 1014 216 2 O 0 29.3 551
12:16:48 15 1013 217 5 S 0 29.5 556
12:19:47 15 1013 217 3 O 0 30.1 550
12:22:48 15 1013 218 7 NW 0 30.4 551
12:25:48 15 1013 218 3 W 0 29.6 551
12:28:51 16 1013 218 2 O 0 28.9 557
12:31:51 16 1013 219 0 NW 0 27.9 566
12:34:48 16 1013 196 3 NO 0 27.6 562
12:37:47 16 1013 199 4 N 0 27.8 480
12:40:49 17 1013 201 10 N 0 25.9 405
12:43:49 16 1013 202 5 NW 0 25.4 407
12:46:47 16 1013 204 2 S 0 26.1 403
12:49:47 16 1013 206 4 N 0 26.8 405
12:52:48 16 1014 207 3 NW 0 26.1 407
12:55:47 16 1013 207 5 NW 0 27.4 404
12:58:48 16 1013 208 5 NO 0 26.4 407
13:01:48 16 1013 209 3 N 0 25.4 405
13:04:47 16 1013 211 4 N 0 25.4 404
13:07:49 16 1014 212 2 SW 0 25.3 407
13:10:50 16 1013 212 3 NO 0 25.5 404
13:13:49 16 1013 213 8 NO 0 25.5 407
13:16:47 16 1013 230 2 NO 0 25.3 407
13:19:47 16 1013 230 8 NW 0 25.5 406
13:22:52 16 1013 230 5 NW 0 25.3 405
13:25:44 16 1013 231 4 N 0 24.3 404
13:28:50 17 1013 231 8 NW 0 24.4 407
13:31:46 17 1013 231 3 W 0 24.1 401
13:34:46 17 1013 233 7 N 0 24.1 404
13:37:49 16 1013 235 7 NW 0 24.5 407
13:40:47 16 1013 235 0 O 0 24.1 407
13:43:47 16 1013 236 4 NW 0 24.4 407
13:46:48 16 1013 241 1 N 0 23.8 416
13:49:48 17 1013 242 3 NW 0 24.9 427
13:52:48 17 1013 242 1 NW 0 24.6 439
13:55:49 17 1013 243 0 SW 0 24.6 442
13:58:48 17 1013 243 4 NO 0 24.7 442
14:01:47 17 1013 243 4 W 0 24.8 448
14:04:50 17 1013 244 2 NO 0 23.6 456
14:07:47 17 1013 244 1 W 0 23.1 466
14:10:47 17 1013 244 1 O 0 24.6 469
14:13:46 17 1013 244 3 N 0 24.7 477
14:16:47 18 1013 245 2 W 0 24.1 481
14:19:48 18 1013 245 5 W 0 26.2 489
14:22:47 19 1013 245 2 W 0 26.3 500
14:25:48 19 1013 245 1 N 0 25.3 512
14:28:46 19 1013 245 0 N 0 23.9 516
14:31:48 19 1013 245 0 O 0 24.6 524
14:34:48 20 1013 245 4 N 0 24.2 524
14:37:47 20 1013 246 6 NW 0 23.7 525
14:40:47 18 1013 246 0 O 0 24.5 536
14:43:48 19 1013 246 3 O 0 26.4 548
14:46:46 19 1013 246 1 S 0 25.5 559
14:49:49 20 1013 246 2 S 0 26 548
14:52:46 20 1013 246 1 S 0 25.2 557
14:55:47 21 1013 246 2 S 0 24.2 559
14:58:48 21 1013 246 0 S 0 22.9 570
15:01:50 21 1013 246 0 SO 0 22.8 566
15:04:49 20 1013 246 4 NO 0 22.3 571
15:07:48 18 1013 246 8 NW 0 21.2 559
15:10:50 18 1013 246 5 NW 0 26.3 562
15:13:46 18 1013 247 1 O 0 26.6 560
15:16:46 18 1013 247 1 O 0 26.5 562
15:19:47 18 1013 246 6 NW 0 24.7 564
15:22:51 18 1013 246 4 NW 0 24.1 557
15:25:48 17 1013 247 0 SW 0 25.2 565
15:28:49 17 1013 247 8 NW 0 25.4 568
15:31:48 17 1012 247 1 S 0 24.7 580
15:34:51 18 1013 247 3 N 0 24.2 580
15:37:50 18 1012 247 6 NO 0 24.4 589
15:40:48 17 1013 247 2 NW 0 24.9 588
15:43:47 17 1013 247 4 N 0 25.2 588
15:46:47 17 1012 247 4 NO 0 24.5 588
15:49:49 17 1012 247 3 N 0 24.4 589
15:52:49 17 1012 247 1 N 0 25.3 612
15:55:47 17 1012 247 0 S 0 27.2 618
15:58:48 18 1013 247 2 NO 0 26.4 621
16:01:49 18 1012 246 2 SO 0 25.4 623
16:04:47 18 1012 247 0 O 0 24.5 626
16:07:48 18 1012 247 2 O 0 25 618
16:10:50 17 1012 246 2 N 0 24.9 619
16:13:48 17 1012 246 3 NO 0 25.3 623
16:16:48 17 1012 246 3 NW 0 25.7 627
16:19:52 17 1013 245 0 SO 0 26.2 646
16:22:48 18 1012 246 0 NW 0 26.6 647
16:25:46 18 1012 244 3 N 0 26.4 653
16:28:48 17 1013 245 2 NW 0 25 653
16:31:50 17 1012 245 1 NW 0 25.8 659
16:34:48 17 1012 203 0 NO 0 26.1 545
16:37:49 17 1012 203 3 NO 0 26.3 407
16:40:48 16 1012 202 2 NW 0 26.6 406
16:43:49 17 1012 200 0 O 0 27.3 404
16:46:48 17 1013 246 2 NO 0 27.7 404
16:49:47 17 1012 246 5 N 0 27.7 460
16:52:48 17 1012 243 4 N 0 26.7 509
16:55:48 17 1012 245 3 N 0 27.3 528
16:58:46 16 1012 244 1 O 0 27.5 532
17:01:48 16 1012 245 1 SO 0 27.5 529
17:04:50 16 1012 244 2 NO 0 27.9 529
17:07:49 16 1012 243 0 N 0 28.7 525
17:10:48 16 1012 243 1 NO 0 28.8 521
17:13:46 15 1012 240 2 N 0 28.7 521
17:16:47 15 1012 239 1 NO 0 29.9 524
17:19:50 15 1012 238 1 NO 0 29.1 521
17:22:46 15 1012 229 1 N 0 29 515
17:25:49 15 1012 224 1 SO 0 29.8 516
17:28:48 15 1012 219 0 O 0 31.7 513
17:31:49 14 1012 219 0 NW 0 32.5 515
17:34:46 14 1012 219 0 N 0 32 521
17:37:47 14 1012 219 2 N 0 33.1 524
17:40:49 14 1013 219 0 O 0 33.7 518
17:43:47 14 1012 133 0 N 0 34.4 443
17:46:49 14 1012 132 0 NW 0 34.7 406
17:49:49 14 1013 221 2 N 0 33.8 404
17:52:47 14 1012 204 0 N 0 33.6 404
17:55:47 14 1012 201 0 NO 0 33.6 409
17:58:50 14 1012 198 0 NO 0 33.9 415
18:01:49 13 1012 195 0 NO 0 34.2 422
18:04:46 13 1012 192 0 N 0 34.5 425
18:07:47 13 1012 188 0 O 0 35 425
18:10:48 13 1012 184 0 O 0 35.8 427
18:13:48 13 1012 178 0 O 0 36.2 425
18:16:47 12 1012 172 0 O 0 36.5 439
18:19:48 12 1012 166 0 O 0 36.9 436
18:22:45 12 1012 158 0 O 0 37.6 447
18:25:46 11 1012 149 0 O 0 38.2 454
18:28:47 11 1012 139 0 O 0 39 454
18:31:48 11 1013 129 0 O 0 39.6 461
18:34:47 11 1012 117 0 O 0 39.9 462
18:37:47 11 1012 104 0 O 0 40.1 471
18:40:47 11 1013 91 0 O 0 40.4 468
18:43:48 11 1013 78 0 SO 0 40.9 469
18:46:47 11 1012 63 0 SO 0 41.2 445
18:49:47 10 1013 48 0 SO 0 41.5 439
18:52:48 10 1012 34 0 SO 0 42.2 451
18:55:48 10 1013 23 0 SO 0 42.6 466
18:58:45 10 1013 15 0 SO 0 43.3 477
19:01:46 10 1013 9 0 SO 0 44 477
19:04:45 10 1013 5 0 S 0 44.7 483
19:07:47 10 1013 3 0 SO 0 45.3 492
19:10:47 10 1013 0 0 SO 0 45.9 495
19:13:47 9 1013 0 0 SO 0 46.2 495
19:16:47 9 1013 0 0 SO 0 46.7 495
19:19:48 9 1013 0 0 SO 0 46.8 500
19:22:49 9 1013 0 0 SO 0 47.3 506
19:25:48 9 1013 0 0 SO 0 47.7 510
19:28:45 9 1013 0 0 SO 0 47.9 512
19:31:46 8 1013 0 0 SO 0 48.2 516
19:34:47 8 1013 0 0 SO 0 49.4 527
19:37:45 8 1013 0 0 SO 0 49.8 536
19:40:50 8 1013 0 0 SO 0 50.7 536
19:43:46 7 1013 0 0 SO 0 51.2 533
19:46:45 7 1013 0 0 SO 0 51.9 544
19:49:47 7 1013 0 0 SO 0 52.2 544
19:52:46 7 1013 0 0 SO 0 52.6 556
19:55:45 7 1013 0 0 SO 0 53.3 562
19:58:45 7 1013 0 0 SO 0 53.6 571
20:01:47 7 1013 0 0 SO 0 53.7 571
20:04:47 7 1013 0 0 SO 0 53.7 574
20:07:46 7 1013 0 0 SO 0 53.6 574
20:10:47 7 1013 0 0 SO 0 53.3 574
20:13:51 7 1013 0 0 SO 0 53.2 577
20:16:46 7 1013 0 0 SO 0 53.2 580
20:19:47 6 1013 0 0 SO 0 53.9 586
20:22:48 6 1013 0 0 SO 0 54.6 585
20:25:46 6 1013 0 0 SO 0 54.8 589
20:28:50 6 1013 0 0 SO 0 55.1 598
20:31:47 6 1013 0 0 SO 0 55.4 602
20:34:48 6 1013 0 0 SO 0 55.7 612
20:37:50 5 1013 0 0 SO 0 56.3 612
20:40:47 5 1013 0 0 SO 0 56.5 614
20:43:48 5 1013 0 0 SO 0 56.5 612
20:46:48 5 1013 0 0 SO 0 56.8 621
20:49:46 5 1013 0 0 SO 0 57.2 626
20:52:47 4 1013 0 0 SO 0 58 633
20:55:46 4 1013 0 0 SO 0 58.4 624
20:58:46 4 1013 0 0 SO 0 59.3 627
21:01:47 4 1013 0 0 SO 0 59.5 630
21:04:46 4 1013 0 0 SO 0 60.3 640
21:07:48 4 1013 0 0 SO 0 60.7 641
21:10:46 4 1013 0 0 SO 0 60.4 644
21:13:46 3 1013 0 0 SO 0 60.5 645
21:16:45 3 1013 0 0 SO 0 60.6 644
21:19:46 3 1013 0 0 SO 0 61.2 644
21:22:45 3 1013 0 0 SO 0 61.1 647
21:25:49 3 1013 0 0 SO 0 61 642
21:28:45 3 1013 0 0 SO 0 61.7 645
21:31:48 3 1013 0 0 SO 0 62.1 651
21:34:47 3 1013 0 0 SO 0 62.7 656
21:37:48 3 1013 0 0 SO 0 62.7 656
21:40:46 3 1013 0 0 SO 0 62.7 656
21:43:49 3 1013 0 0 SO 0 62.8 662
21:46:50 3 1013 0 0 SO 0 63 666
21:49:45 3 1013 0 0 SO 0 63.3 679
21:52:49 3 1013 0 0 SO 0 64.2 683
21:55:47 3 1013 0 0 SO 0 65.1 682
21:58:48 3 1013 0 0 SO 0 65.2 685
22:01:47 3 1013 0 0 SO 0 65.4 693
22:04:48 3 1013 0 0 SO 0 65.4 692
22:07:47 2 1013 0 0 SO 0 66 697
22:10:49 2 1013 0 0 SO 0 66.3 685
22:13:47 2 1013 0 0 SO 0 66.2 695
22:16:49 2 1013 0 0 SO 0 67 697
22:19:48 2 1013 0 0 SO 0 67.3 705
22:22:47 2 1013 0 0 SO 0 67.9 706
22:25:45 2 1013 0 0 SO 0 68.3 709
22:28:45 2 1013 0 0 SO 0 68.9 711
22:31:46 2 1013 0 0 SO 0 68.6 703
22:34:49 1 1013 0 0 SO 0 68.6 709
22:37:48 1 1013 0 0 SO 0 68.8 701
22:40:47 1 1013 0 0 SO 0 69.4 708
22:43:46 1 1013 0 0 SO 0 69.4 707
22:46:47 1 1013 0 0 SO 0 69.7 712
22:49:46 1 1013 0 0 SO 0 70.3 710
22:52:48 1 1013 0 0 SO 0 70.3 710
22:55:49 1 1013 0 0 SO 0 70.1 709
22:58:45 1 1013 0 0 SO 0 69.7 706
23:01:47 1 1013 0 0 SO 0 69.9 712
23:04:48 1 1013 0 0 SO 0 69.9 728
23:07:49 1 1013 0 0 SO 0 69.7 736
23:10:47 1 1013 0 0 SO 0 70.1 734
23:13:46 1 1013 0 0 SO 0 70.5 735
23:16:47 1 1013 0 0 SO 0 70.8 729
23:19:47 1 1013 0 0 SO 0 70.6 723
23:22:49 1 1013 0 0 SO 0 70.2 720
23:25:47 0 1013 0 0 SO 0 70.2 719
23:28:48 0 1013 0 0 SO 0 70.7 721
23:31:46 1 1013 0 0 SO 0 71.3 715
23:34:47 1 1013 0 0 SO 0 72.3 727
23:37:48 1 1013 0 0 SO 0 71.8 727
23:40:47 1 1013 0 0 SO 0 71.7 725
23:43:46 1 1013 0 0 SO 0 71.1 732
23:46:47 1 1013 0 0 SO 0 71.4 739
23:49:50 1 1013 0 0 NW 0 71.9 737
23:52:50 1 1013 0 0 NW 0 75.2 738
23:55:48 1 1013 0 0 O 0 74.8 736
23:58:46 1 1013 0 0 O 0 74.8 732

Letzte Änderung : 22-Jul-2022
Copyright Jens Köhler, Wolfsburg, Obere Dorfstraße 10d